Time,TemperatureF,DewpointF,PressureIn,WindDirection,WindDirectionDegrees,WindSpeedMPH,WindSpeedGustMPH,Humidity,HourlyPrecipIn,Conditions,Clouds,dailyrainin,SolarRadiationWatts/m^2,SoftwareType,DateUTC
2013-02-10 00:00:00,-1.0,-4.7,30.33,SW,214,0.0,0.0,84,0.00,CLR,FEW,0.00,0.0,WeatherDisplay:10.37,2013-02-10 05:00:00,
2013-02-10 00:01:00,-1.0,-4.7,30.33,SW,214,1.1,0.0,84,0.00,CLR,FEW,0.00,0.0,WeatherDisplay:10.37,2013-02-10 05:01:00,
2013-02-10 00:02:00,-1.0,-4.7,30.33,SW,214,0.0,0.0,84,0.00,CLR,FEW,0.00,0.0,WeatherDisplay:10.37,2013-02-10 05:02:00,
2013-02-10 00:07:00,-1.1,-4.8,30.33,SW,214,0.0,0.0,84,0.00,CLR,FEW,0.00,0.0,WeatherDisplay:10.37,2013-02-10 05:07:00,
2013-02-10 00:12:00,-1.3,-5.0,30.34,SW,214,0.0,0.0,84,0.00,CLR,FEW,0.00,0.0,WeatherDisplay:10.37,2013-02-10 05:12:00,
2013-02-10 00:17:00,-1.5,-5.2,30.34,SW,214,0.0,0.0,84,0.00,CLR,FEW,0.00,0.0,WeatherDisplay:10.37,2013-02-10 05:17:00,
2013-02-10 00:22:00,-1.7,-5.4,30.33,SW,219,1.0,0.0,84,0.00,CLR,FEW,0.00,0.0,WeatherDisplay:10.37,2013-02-10 05:22:00,
2013-02-10 00:27:00,-1.8,-5.5,30.33,SSW,197,1.0,1.0,84,0.00,CLR,FEW,0.00,0.0,WeatherDisplay:10.37,2013-02-10 05:27:00,
2013-02-10 00:32:00,-1.8,-5.5,30.33,SSW,204,1.1,1.1,84,0.00,CLR,FEW,0.00,0.0,WeatherDisplay:10.37,2013-02-10 05:32:00,
2013-02-10 00:37:00,-2.0,-5.6,30.33,NNW,330,0.0,0.0,84,0.00,CLR,FEW,0.00,0.0,WeatherDisplay:10.37,2013-02-10 05:37:00,
2013-02-10 00:43:00,-1.9,-5.3,30.34,NW,317,2.3,0.0,85,0.00,CLR,FEW,0.00,0.0,WeatherDisplay:10.37,2013-02-10 05:43:00,
2013-02-10 00:48:00,-1.8,-5.2,30.34,WNW,298,1.0,0.0,85,0.00,CLR,FEW,0.00,0.0,WeatherDisplay:10.37,2013-02-10 05:48:00,
2013-02-10 00:53:00,-1.8,-5.5,30.34,North,355,0.0,0.0,84,0.00,CLR,FEW,0.00,0.0,WeatherDisplay:10.37,2013-02-10 05:53:00,
2013-02-10 00:58:00,-1.8,-5.5,30.34,NNW,346,1.1,0.0,84,0.00,CLR,FEW,0.00,0.0,WeatherDisplay:10.37,2013-02-10 05:58:00,
2013-02-10 01:03:00,-1.8,-5.2,30.34,West,266,3.5,3.5,85,0.00,CLR,FEW,0.00,0.0,WeatherDisplay:10.37,2013-02-10 06:03:00,
2013-02-10 01:08:00,-1.7,-5.1,30.34,SW,227,3.5,3.5,85,0.00,CLR,FEW,0.00,0.0,WeatherDisplay:10.37,2013-02-10 06:08:00,
2013-02-10 01:13:00,-1.6,-5.0,30.34,WSW,242,2.0,2.0,85,0.00,CLR,FEW,0.00,0.0,WeatherDisplay:10.37,2013-02-10 06:13:00,
2013-02-10 01:18:00,-1.5,-4.9,30.35,WSW,250,2.3,2.3,85,0.00,CLR,FEW,0.00,0.0,WeatherDisplay:10.37,2013-02-10 06:18:00,
2013-02-10 01:23:00,-1.4,-5.1,30.35,SSW,209,0.0,0.0,84,0.00,CLR,FEW,0.00,0.0,WeatherDisplay:10.37,2013-02-10 06:23:00,
2013-02-10 01:28:00,-1.4,-5.1,30.35,West,262,1.1,0.0,84,0.00,CLR,FEW,0.00,0.0,WeatherDisplay:10.37,2013-02-10 06:28:00,
2013-02-10 01:33:00,-1.5,-5.2,30.35,West,262,1.1,0.0,84,0.00,CLR,FEW,0.00,0.0,WeatherDisplay:10.37,2013-02-10 06:33:00,
2013-02-10 01:38:00,-1.7,-5.4,30.36,West,264,1.1,1.1,84,0.00,CLR,FEW,0.00,0.0,WeatherDisplay:10.37,2013-02-10 06:38:00,
2013-02-10 01:43:00,-1.8,-5.5,30.36,West,264,0.0,0.0,84,0.00,CLR,FEW,0.00,0.0,WeatherDisplay:10.37,2013-02-10 06:43:00,
2013-02-10 01:48:00,-2.0,-5.9,30.36,West,264,1.1,1.1,83,0.00,CLR,FEW,0.00,0.0,WeatherDisplay:10.37,2013-02-10 06:48:00,
2013-02-10 01:53:00,-2.2,-5.8,30.37,SW,233,0.0,0.0,84,0.00,CLR,FEW,0.00,0.0,WeatherDisplay:10.37,2013-02-10 06:53:00,
2013-02-10 01:58:00,-2.3,-5.9,30.37,SW,233,0.0,0.0,84,0.00,CLR,FEW,0.00,0.0,WeatherDisplay:10.37,2013-02-10 06:58:00,
2013-02-10 02:03:00,-2.5,-6.4,30.37,SW,233,1.0,1.0,83,0.00,CLR,FEW,0.00,0.0,WeatherDisplay:10.37,2013-02-10 07:03:00,
2013-02-10 02:08:00,-2.7,-6.6,30.37,SW,233,0.0,0.0,83,0.00,CLR,FEW,0.00,0.0,WeatherDisplay:10.37,2013-02-10 07:08:00,
2013-02-10 02:13:00,-2.7,-6.3,30.37,SW,233,0.0,0.0,84,0.00,CLR,FEW,0.00,0.0,WeatherDisplay:10.37,2013-02-10 07:13:00,
2013-02-10 02:18:00,-2.8,-6.7,30.36,SW,233,0.0,0.0,83,0.00,CLR,FEW,0.00,0.0,WeatherDisplay:10.37,2013-02-10 07:18:00,
2013-02-10 02:23:00,-2.9,-6.5,30.37,SW,233,0.0,0.0,84,0.00,CLR,FEW,0.00,0.0,WeatherDisplay:10.37,2013-02-10 07:23:00,
2013-02-10 02:28:00,-2.9,-6.5,30.37,SW,233,0.0,0.0,84,0.00,CLR,FEW,0.00,0.0,WeatherDisplay:10.37,2013-02-10 07:28:00,
2013-02-10 02:33:00,-3.0,-6.6,30.37,SW,233,0.0,0.0,84,0.00,CLR,FEW,0.00,0.0,WeatherDisplay:10.37,2013-02-10 07:33:00,
2013-02-10 02:38:00,-3.2,-6.8,30.37,SW,233,0.0,0.0,84,0.00,CLR,FEW,0.00,0.0,WeatherDisplay:10.37,2013-02-10 07:38:00,
2013-02-10 02:43:00,-3.3,-6.9,30.37,SW,233,0.0,0.0,84,0.00,CLR,FEW,0.00,0.0,WeatherDisplay:10.37,2013-02-10 07:43:00,
2013-02-10 02:48:00,-3.4,-7.0,30.37,SW,233,0.0,0.0,84,0.00,CLR,FEW,0.00,0.0,WeatherDisplay:10.37,2013-02-10 07:48:00,
2013-02-10 02:53:00,-3.5,-7.1,30.37,SW,233,0.0,0.0,84,0.00,CLR,FEW,0.00,0.0,WeatherDisplay:10.37,2013-02-10 07:53:00,
2013-02-10 02:58:00,-3.5,-7.1,30.37,SW,233,0.0,0.0,84,0.00,CLR,FEW,0.00,0.0,WeatherDisplay:10.37,2013-02-10 07:58:00,
2013-02-10 03:03:00,-3.5,-7.1,30.38,SW,233,0.0,0.0,84,0.00,CLR,FEW,0.00,0.0,WeatherDisplay:10.37,2013-02-10 08:03:00,
2013-02-10 03:08:00,-3.4,-7.0,30.38,SW,234,0.0,0.0,84,0.00,CLR,FEW,0.00,0.0,WeatherDisplay:10.37,2013-02-10 08:08:00,
2013-02-10 03:13:00,-3.4,-7.0,30.38,SW,233,1.1,0.0,84,0.00,CLR,FEW,0.00,0.0,WeatherDisplay:10.37,2013-02-10 08:13:00,
2013-02-10 03:18:00,-3.5,-7.1,30.39,SW,233,0.0,0.0,84,0.00,CLR,FEW,0.00,0.0,WeatherDisplay:10.37,2013-02-10 08:18:00,
2013-02-10 03:23:00,-3.6,-7.2,30.39,SW,233,0.0,0.0,84,0.00,CLR,FEW,0.00,0.0,WeatherDisplay:10.37,2013-02-10 08:23:00,
2013-02-10 03:28:00,-3.6,-7.2,30.38,SW,233,0.0,0.0,84,0.00,CLR,FEW,0.00,0.0,WeatherDisplay:10.37,2013-02-10 08:28:00,
2013-02-10 03:33:00,-3.7,-7.3,30.38,SW,233,0.0,0.0,84,0.00,CLR,FEW,0.00,0.0,WeatherDisplay:10.37,2013-02-10 08:33:00,
2013-02-10 03:38:00,-3.9,-7.5,30.39,SW,233,0.0,0.0,84,0.00,CLR,FEW,0.00,0.0,WeatherDisplay:10.37,2013-02-10 08:38:00,
2013-02-10 03:43:00,-4.1,-7.7,30.39,SW,233,0.0,0.0,84,0.00,CLR,FEW,0.00,0.0,WeatherDisplay:10.37,2013-02-10 08:43:00,
2013-02-10 03:48:00,-4.3,-7.9,30.39,SW,233,0.0,0.0,84,0.00,CLR,FEW,0.00,0.0,WeatherDisplay:10.37,2013-02-10 08:48:00,
2013-02-10 03:53:00,-4.5,-8.1,30.39,SW,233,0.0,0.0,84,0.00,CLR,FEW,0.00,0.0,WeatherDisplay:10.37,2013-02-10 08:53:00,
2013-02-10 03:58:00,-4.6,-8.2,30.39,SW,233,0.0,0.0,84,0.00,CLR,FEW,0.00,0.0,WeatherDisplay:10.37,2013-02-10 08:58:00,
2013-02-10 04:03:00,-4.6,-8.2,30.39,SW,233,0.0,0.0,84,0.00,CLR,FEW,0.00,0.0,WeatherDisplay:10.37,2013-02-10 09:03:00,
2013-02-10 04:08:00,-4.7,-8.3,30.40,SW,233,0.0,0.0,84,0.00,CLR,FEW,0.00,0.0,WeatherDisplay:10.37,2013-02-10 09:08:00,
2013-02-10 04:13:00,-4.7,-8.3,30.40,SW,233,0.0,0.0,84,0.00,CLR,FEW,0.00,0.0,WeatherDisplay:10.37,2013-02-10 09:13:00,
2013-02-10 04:18:00,-4.8,-8.4,30.40,SW,233,0.0,0.0,84,0.00,CLR,FEW,0.00,0.0,WeatherDisplay:10.37,2013-02-10 09:18:00,
2013-02-10 04:23:00,-4.8,-8.2,30.39,SW,233,0.0,0.0,85,0.00,CLR,FEW,0.00,0.0,WeatherDisplay:10.37,2013-02-10 09:23:00,
2013-02-10 04:28:00,-4.7,-8.1,30.40,SW,233,0.0,0.0,85,0.00,CLR,FEW,0.00,0.0,WeatherDisplay:10.37,2013-02-10 09:28:00,
2013-02-10 04:33:00,-4.6,-8.0,30.40,SW,233,0.0,0.0,85,0.00,CLR,FEW,0.00,0.0,WeatherDisplay:10.37,2013-02-10 09:33:00,
2013-02-10 04:38:00,-4.6,-8.2,30.41,SW,233,0.0,0.0,84,0.00,CLR,FEW,0.00,0.0,WeatherDisplay:10.37,2013-02-10 09:38:00,
2013-02-10 04:43:00,-4.6,-8.0,30.40,SW,233,0.0,0.0,85,0.00,CLR,FEW,0.00,0.0,WeatherDisplay:10.37,2013-02-10 09:43:00,
2013-02-10 04:48:00,-4.7,-8.3,30.41,SW,233,0.0,0.0,84,0.00,CLR,FEW,0.00,0.0,WeatherDisplay:10.37,2013-02-10 09:48:00,
2013-02-10 04:53:00,-4.9,-8.5,30.41,SW,233,0.0,0.0,84,0.00,CLR,FEW,0.00,0.0,WeatherDisplay:10.37,2013-02-10 09:53:00,
2013-02-10 04:58:00,-5.2,-8.8,30.41,SW,233,0.0,0.0,84,0.00,CLR,FEW,0.00,0.0,WeatherDisplay:10.37,2013-02-10 09:58:00,
2013-02-10 05:03:00,-5.4,-9.0,30.41,SW,233,0.0,0.0,84,0.00,CLR,FEW,0.00,0.0,WeatherDisplay:10.37,2013-02-10 10:03:00,
2013-02-10 05:08:00,-5.6,-9.2,30.42,SW,233,0.0,0.0,84,0.00,CLR,FEW,0.00,0.0,WeatherDisplay:10.37,2013-02-10 10:08:00,
2013-02-10 05:13:00,-5.5,-8.8,30.42,SW,233,0.0,0.0,85,0.00,CLR,FEW,0.00,0.0,WeatherDisplay:10.37,2013-02-10 10:13:00,
2013-02-10 05:18:00,-5.5,-8.8,30.42,SW,233,0.0,0.0,85,0.00,CLR,FEW,0.00,0.0,WeatherDisplay:10.37,2013-02-10 10:18:00,
2013-02-10 05:23:00,-5.7,-9.3,30.42,SW,233,0.0,0.0,84,0.00,CLR,FEW,0.00,0.0,WeatherDisplay:10.37,2013-02-10 10:23:00,
2013-02-10 05:28:00,-6.0,-9.8,30.42,SW,233,0.0,0.0,83,0.00,CLR,FEW,0.00,0.0,WeatherDisplay:10.37,2013-02-10 10:28:00,
2013-02-10 05:33:00,-6.4,-10.2,30.43,SW,233,0.0,0.0,83,0.00,CLR,FEW,0.00,0.0,WeatherDisplay:10.37,2013-02-10 10:33:00,
2013-02-10 05:38:00,-6.7,-10.3,30.43,SW,233,0.0,0.0,84,0.00,CLR,FEW,0.00,0.0,WeatherDisplay:10.37,2013-02-10 10:38:00,
2013-02-10 05:43:00,-6.8,-10.4,30.43,SW,233,0.0,0.0,84,0.00,CLR,FEW,0.00,0.0,WeatherDisplay:10.37,2013-02-10 10:43:00,
2013-02-10 05:48:00,-6.9,-10.2,30.43,SW,233,0.0,0.0,85,0.00,CLR,FEW,0.00,0.0,WeatherDisplay:10.37,2013-02-10 10:48:00,
2013-02-10 05:53:00,-6.9,-10.2,30.43,SW,233,0.0,0.0,85,0.00,CLR,FEW,0.00,0.0,WeatherDisplay:10.37,2013-02-10 10:53:00,
2013-02-10 05:58:00,-6.9,-10.2,30.43,SW,233,0.0,0.0,85,0.00,CLR,FEW,0.00,0.0,WeatherDisplay:10.37,2013-02-10 10:58:00,
2013-02-10 06:03:00,-7.0,-10.3,30.44,SW,233,0.0,0.0,85,0.00,CLR,FEW,0.00,0.0,WeatherDisplay:10.37,2013-02-10 11:03:00,
2013-02-10 06:08:00,-7.0,-10.3,30.44,SW,233,0.0,0.0,85,0.00,CLR,FEW,0.00,0.0,WeatherDisplay:10.37,2013-02-10 11:08:00,
2013-02-10 06:13:00,-6.9,-10.2,30.44,SW,233,0.0,0.0,85,0.00,CLR,FEW,0.00,0.0,WeatherDisplay:10.37,2013-02-10 11:13:00,
2013-02-10 06:18:00,-7.0,-10.3,30.44,SW,233,0.0,0.0,85,0.00,CLR,FEW,0.00,0.0,WeatherDisplay:10.37,2013-02-10 11:18:00,
2013-02-10 06:23:00,-7.1,-10.4,30.45,SW,233,0.0,0.0,85,0.00,CLR,FEW,0.00,0.0,WeatherDisplay:10.37,2013-02-10 11:23:00,
2013-02-10 06:28:00,-7.0,-10.3,30.45,SW,233,0.0,0.0,85,0.00,CLR,FEW,0.00,0.0,WeatherDisplay:10.37,2013-02-10 11:28:00,
2013-02-10 06:33:00,-6.8,-10.1,30.45,SW,233,0.0,0.0,85,0.00,CLR,FEW,0.00,0.0,WeatherDisplay:10.37,2013-02-10 11:33:00,
2013-02-10 06:38:00,-6.3,-9.4,30.45,SW,233,0.0,0.0,86,0.00,CLR,FEW,0.00,0.0,WeatherDisplay:10.37,2013-02-10 11:38:00,
2013-02-10 06:43:00,-5.7,-8.6,30.46,SW,233,0.0,0.0,87,0.00,CLR,FEW,0.00,0.0,WeatherDisplay:10.37,2013-02-10 11:43:00,
2013-02-10 06:48:00,-5.3,-8.4,30.46,SW,233,0.0,0.0,86,0.00,CLR,FEW,0.00,0.0,WeatherDisplay:10.37,2013-02-10 11:48:00,
2013-02-10 06:53:00,-5.3,-8.9,30.46,SW,233,0.0,0.0,84,0.00,CLR,FEW,0.00,0.0,WeatherDisplay:10.37,2013-02-10 11:53:00,
2013-02-10 06:58:00,-5.6,-9.4,30.46,SW,233,0.0,0.0,83,0.00,CLR,FEW,0.00,5.0,WeatherDisplay:10.37,2013-02-10 11:58:00,
2013-02-10 07:03:00,-6.0,-9.8,30.46,SW,233,0.0,0.0,83,0.00,CLR,FEW,0.00,5.0,WeatherDisplay:10.37,2013-02-10 12:03:00,
2013-02-10 07:08:00,-6.2,-9.8,30.47,SW,233,0.0,0.0,84,0.00,CLR,FEW,0.00,14.0,WeatherDisplay:10.37,2013-02-10 12:08:00,
2013-02-10 07:13:00,-6.1,-9.4,30.47,SW,233,0.0,0.0,85,0.00,CLR,FEW,0.00,23.0,WeatherDisplay:10.37,2013-02-10 12:13:00,
2013-02-10 07:18:00,-5.7,-9.0,30.47,SW,233,0.0,0.0,85,0.00,CLR,FEW,0.00,28.0,WeatherDisplay:10.37,2013-02-10 12:18:00,
2013-02-10 07:23:00,-5.3,-8.6,30.47,SW,233,0.0,0.0,85,0.00,CLR,FEW,0.00,33.0,WeatherDisplay:10.37,2013-02-10 12:23:00,
2013-02-10 07:28:00,-5.0,-8.4,30.47,SW,233,0.0,0.0,85,0.00,CLR,FEW,0.00,39.0,WeatherDisplay:10.37,2013-02-10 12:28:00,
2013-02-10 07:33:00,-4.7,-8.3,30.48,SW,233,0.0,0.0,84,0.00,CLR,FEW,0.00,44.0,WeatherDisplay:10.37,2013-02-10 12:33:00,
2013-02-10 07:38:00,-4.2,-7.6,30.47,SW,233,0.0,0.0,85,0.00,CLR,FEW,0.00,49.0,WeatherDisplay:10.37,2013-02-10 12:38:00,
2013-02-10 07:43:00,-3.3,-6.7,30.47,SW,233,0.0,0.0,85,0.00,CLR,FEW,0.00,54.0,WeatherDisplay:10.37,2013-02-10 12:43:00,
2013-02-10 07:48:00,-3.1,-7.5,30.47,SW,233,1.1,0.0,81,0.00,CLR,FEW,0.00,58.0,WeatherDisplay:10.37,2013-02-10 12:48:00,
2013-02-10 07:53:00,-3.2,-7.6,30.48,SW,233,0.0,0.0,81,0.00,CLR,FEW,0.00,63.0,WeatherDisplay:10.37,2013-02-10 12:53:00,
2013-02-10 07:58:00,-3.2,-7.6,30.48,SW,233,0.0,0.0,81,0.00,CLR,FEW,0.00,69.0,WeatherDisplay:10.37,2013-02-10 12:58:00,
2013-02-10 08:03:00,-3.1,-7.5,30.48,SW,233,0.0,0.0,81,0.00,CLR,FEW,0.00,74.0,WeatherDisplay:10.37,2013-02-10 13:03:00,
2013-02-10 08:08:00,-2.9,-7.5,30.48,SW,233,1.0,0.0,80,0.00,CLR,FEW,0.00,79.0,WeatherDisplay:10.37,2013-02-10 13:08:00,
2013-02-10 08:13:00,-3.4,-8.5,30.48,SW,233,0.0,0.0,78,0.00,CLR,FEW,0.00,84.0,WeatherDisplay:10.37,2013-02-10 13:13:00,
2013-02-10 08:18:00,-3.3,-7.9,30.49,SW,233,0.0,0.0,80,0.00,CLR,FEW,0.00,91.0,WeatherDisplay:10.37,2013-02-10 13:18:00,
2013-02-10 08:23:00,-2.5,-6.9,30.49,SW,233,0.0,0.0,81,0.00,CLR,FEW,0.00,97.0,WeatherDisplay:10.37,2013-02-10 13:23:00,
2013-02-10 08:28:00,-1.5,-5.7,30.50,SW,233,1.1,1.1,82,0.00,CLR,FEW,0.00,104.0,WeatherDisplay:10.37,2013-02-10 13:28:00,
2013-02-10 08:33:00,-0.8,-5.5,30.50,SW,229,1.1,1.1,80,0.00,CLR,FEW,0.00,109.0,WeatherDisplay:10.37,2013-02-10 13:33:00,
2013-02-10 08:38:00,-1.1,-6.8,30.50,SW,229,1.1,1.1,76,0.00,CLR,FEW,0.00,116.0,WeatherDisplay:10.37,2013-02-10 13:38:00,
2013-02-10 08:43:00,-1.0,-6.5,30.50,SW,229,1.1,0.0,77,0.00,CLR,FEW,0.00,125.0,WeatherDisplay:10.37,2013-02-10 13:43:00,
2013-02-10 08:48:00,-0.4,-5.6,30.50,SW,214,2.3,2.3,78,0.00,CLR,FEW,0.00,130.0,WeatherDisplay:10.37,2013-02-10 13:48:00,
2013-02-10 08:53:00,0.3,-5.2,30.50,SW,214,1.0,0.0,77,0.00,CLR,FEW,0.00,139.0,WeatherDisplay:10.37,2013-02-10 13:53:00,
2013-02-10 08:58:00,0.2,-5.3,30.51,SSW,213,2.3,2.3,77,0.00,CLR,FEW,0.00,144.0,WeatherDisplay:10.37,2013-02-10 13:58:00,
2013-02-10 09:03:00,-0.1,-5.6,30.51,SSW,213,1.0,1.0,77,0.00,CLR,FEW,0.00,155.0,WeatherDisplay:10.37,2013-02-10 14:03:00,
2013-02-10 09:08:00,-0.1,-5.6,30.51,SSW,213,1.1,0.0,77,0.00,CLR,FEW,0.00,162.0,WeatherDisplay:10.37,2013-02-10 14:08:00,
2013-02-10 09:13:00,0.5,-5.0,30.51,SSW,213,2.3,0.0,77,0.00,CLR,FEW,0.00,171.0,WeatherDisplay:10.37,2013-02-10 14:13:00,
2013-02-10 09:18:00,1.0,-4.5,30.51,SSW,202,3.5,3.5,77,0.00,CLR,FEW,0.00,178.0,WeatherDisplay:10.37,2013-02-10 14:18:00,
2013-02-10 09:23:00,1.6,-3.9,30.51,SSW,202,2.3,2.3,77,0.00,CLR,FEW,0.00,186.0,WeatherDisplay:10.37,2013-02-10 14:23:00,
2013-02-10 09:28:00,2.6,-3.2,30.51,SSW,202,1.0,1.0,76,0.00,CLR,FEW,0.00,195.0,WeatherDisplay:10.37,2013-02-10 14:28:00,
2013-02-10 09:33:00,3.7,-2.5,30.51,South,175,2.0,2.0,75,0.00,CLR,FEW,0.00,206.0,WeatherDisplay:10.37,2013-02-10 14:33:00,
2013-02-10 09:38:00,3.6,-2.8,30.51,ESE,117,3.5,3.5,74,0.00,CLR,FEW,0.00,216.0,WeatherDisplay:10.37,2013-02-10 14:38:00,
2013-02-10 09:43:00,3.8,-2.4,30.50,ESE,121,1.1,1.1,75,0.00,CLR,FEW,0.00,225.0,WeatherDisplay:10.37,2013-02-10 14:43:00,
2013-02-10 09:48:00,4.5,-2.0,30.51,SE,128,1.1,1.1,74,0.00,CLR,FEW,0.00,236.0,WeatherDisplay:10.37,2013-02-10 14:48:00,
2013-02-10 09:53:00,4.8,-1.7,30.50,SE,131,3.5,3.5,74,0.00,CLR,FEW,0.00,246.0,WeatherDisplay:10.37,2013-02-10 14:53:00,
2013-02-10 09:58:00,5.9,-0.9,30.50,SE,131,0.0,0.0,73,0.00,CLR,FEW,0.00,258.0,WeatherDisplay:10.37,2013-02-10 14:58:00,
2013-02-10 10:03:00,7.2,0.1,30.50,NE,44,1.1,1.1,72,0.00,CLR,FEW,0.00,267.0,WeatherDisplay:10.37,2013-02-10 15:03:00,
2013-02-10 10:08:00,8.9,1.1,30.51,ENE,67,2.3,2.3,70,0.00,CLR,FEW,0.00,283.0,WeatherDisplay:10.37,2013-02-10 15:08:00,
2013-02-10 10:13:00,9.6,0.5,30.50,West,266,5.0,5.0,66,0.00,CLR,FEW,0.00,297.0,WeatherDisplay:10.37,2013-02-10 15:13:00,
2013-02-10 10:18:00,9.9,0.8,30.51,SSW,205,2.0,2.0,66,0.00,CLR,FEW,0.00,313.0,WeatherDisplay:10.37,2013-02-10 15:18:00,
2013-02-10 10:23:00,10.2,0.8,30.51,South,171,1.1,1.1,65,0.00,CLR,FEW,0.00,325.0,WeatherDisplay:10.37,2013-02-10 15:23:00,
2013-02-10 10:28:00,11.1,1.3,30.51,West,264,6.0,6.0,64,0.00,CLR,FEW,0.00,341.0,WeatherDisplay:10.37,2013-02-10 15:28:00,
2013-02-10 10:33:00,10.9,2.1,30.51,WNW,287,4.6,4.6,67,0.00,CLR,FEW,0.00,355.0,WeatherDisplay:10.37,2013-02-10 15:33:00,
2013-02-10 10:38:00,10.4,0.3,30.51,SW,215,3.5,3.5,63,0.00,CLR,FEW,0.00,373.0,WeatherDisplay:10.37,2013-02-10 15:38:00,
2013-02-10 10:43:00,10.7,0.9,30.51,WSW,245,3.5,3.5,64,0.00,CLR,FEW,0.00,387.0,WeatherDisplay:10.37,2013-02-10 15:43:00,
2013-02-10 10:48:00,11.3,1.1,30.51,SW,229,2.3,2.3,63,0.00,CLR,FEW,0.00,406.0,WeatherDisplay:10.37,2013-02-10 15:48:00,
2013-02-10 10:53:00,12.1,3.2,30.51,WNW,300,3.5,3.5,67,0.00,CLR,FEW,0.00,434.0,WeatherDisplay:10.37,2013-02-10 15:53:00,
2013-02-10 10:58:00,12.3,2.1,30.50,NNW,347,4.0,4.0,63,0.00,CLR,FEW,0.00,468.0,WeatherDisplay:10.37,2013-02-10 15:58:00,
2013-02-10 11:03:00,12.5,3.3,30.50,WSW,249,4.0,4.0,66,0.00,CLR,FEW,0.00,487.0,WeatherDisplay:10.37,2013-02-10 16:03:00,
2013-02-10 11:08:00,12.8,2.2,30.51,South,190,3.5,3.5,62,0.00,CLR,FEW,0.00,513.0,WeatherDisplay:10.37,2013-02-10 16:08:00,
2013-02-10 11:13:00,12.7,2.8,30.51,NW,304,2.3,2.3,64,0.00,CLR,FEW,0.00,527.0,WeatherDisplay:10.37,2013-02-10 16:13:00,
2013-02-10 11:18:00,13.9,2.9,30.50,NE,55,3.0,3.0,61,0.00,CLR,FEW,0.00,541.0,WeatherDisplay:10.37,2013-02-10 16:18:00,
2013-02-10 11:23:00,14.2,3.2,30.50,WSW,252,5.0,5.0,61,0.00,CLR,FEW,0.00,577.0,WeatherDisplay:10.37,2013-02-10 16:23:00,
2013-02-10 11:28:00,14.0,3.4,30.50,SW,223,3.0,3.0,62,0.00,CLR,FEW,0.00,585.0,WeatherDisplay:10.37,2013-02-10 16:28:00,
2013-02-10 11:34:00,14.0,2.7,30.50,SW,216,1.1,1.1,60,0.00,CLR,FEW,0.00,612.0,WeatherDisplay:10.37,2013-02-10 16:34:00,
2013-02-10 11:39:00,14.6,3.9,30.50,SE,140,2.3,2.3,62,0.00,CLR,FEW,0.00,612.0,WeatherDisplay:10.37,2013-02-10 16:39:00,
2013-02-10 11:44:00,14.6,2.1,30.49,SSE,159,2.3,2.3,57,0.00,CLR,FEW,0.00,615.0,WeatherDisplay:10.37,2013-02-10 16:44:00,
2013-02-10 11:49:00,14.8,2.7,30.49,SSW,207,3.5,3.5,58,0.00,CLR,FEW,0.00,621.0,WeatherDisplay:10.37,2013-02-10 16:49:00,
2013-02-10 11:54:00,14.8,3.4,30.49,SW,235,4.6,4.6,60,0.00,CLR,FEW,0.00,622.0,WeatherDisplay:10.37,2013-02-10 16:54:00,
2013-02-10 11:59:00,15.4,4.0,30.49,SW,229,3.5,3.5,60,0.00,CLR,FEW,0.00,624.0,WeatherDisplay:10.37,2013-02-10 16:59:00,
2013-02-10 12:04:00,16.2,4.4,30.49,SW,232,3.5,3.5,59,0.00,CLR,FEW,0.00,605.0,WeatherDisplay:10.37,2013-02-10 17:04:00,
2013-02-10 12:09:00,16.2,2.8,30.49,SSW,213,3.5,3.5,55,0.00,CLR,FEW,0.00,622.0,WeatherDisplay:10.37,2013-02-10 17:09:00,
2013-02-10 12:15:00,16.0,4.5,30.49,SSW,210,2.3,2.3,60,0.00,CLR,FEW,0.00,624.0,WeatherDisplay:10.37,2013-02-10 17:15:00,
2013-02-10 12:20:00,17.2,5.7,30.49,NW,309,3.5,3.5,60,0.00,CLR,FEW,0.00,622.0,WeatherDisplay:10.37,2013-02-10 17:20:00,
2013-02-10 12:25:00,16.9,3.9,30.49,SSW,196,3.5,3.5,56,0.00,CLR,FEW,0.00,624.0,WeatherDisplay:10.37,2013-02-10 17:25:00,
2013-02-10 12:30:00,17.0,4.4,30.48,SW,233,3.5,3.5,57,0.00,CLR,FEW,0.00,617.0,WeatherDisplay:10.37,2013-02-10 17:30:00,
2013-02-10 12:35:00,17.0,3.2,30.47,SSW,192,3.5,3.5,54,0.00,CLR,FEW,0.00,619.0,WeatherDisplay:10.37,2013-02-10 17:35:00,
2013-02-10 12:40:00,17.0,4.4,30.47,South,190,2.3,2.3,57,0.00,CLR,FEW,0.00,619.0,WeatherDisplay:10.37,2013-02-10 17:40:00,
2013-02-10 12:45:00,17.0,4.0,30.48,South,191,2.3,0.0,56,0.00,CLR,FEW,0.00,617.0,WeatherDisplay:10.37,2013-02-10 17:45:00,
2013-02-10 12:50:00,17.8,4.7,30.47,West,259,4.0,4.0,56,0.00,CLR,FEW,0.00,601.0,WeatherDisplay:10.37,2013-02-10 17:50:00,
2013-02-10 12:55:00,18.1,5.0,30.47,SW,221,1.1,1.1,56,0.00,CLR,FEW,0.00,606.0,WeatherDisplay:10.37,2013-02-10 17:55:00,
2013-02-10 13:00:00,18.4,4.9,30.47,SSE,165,3.0,3.0,55,0.00,CLR,FEW,0.00,603.0,WeatherDisplay:10.37,2013-02-10 18:00:00,
2013-02-10 13:05:00,17.8,3.1,30.47,South,180,2.3,2.3,52,0.01,RA,FEW,0.01,599.0,WeatherDisplay:10.37,2013-02-10 18:05:00,
2013-02-10 13:10:00,18.4,6.1,30.47,SW,220,1.1,1.1,58,0.01,CLR,FEW,0.01,591.0,WeatherDisplay:10.37,2013-02-10 18:10:00,
2013-02-10 13:15:00,18.5,4.2,30.47,South,182,2.0,2.0,53,0.01,CLR,FEW,0.01,585.0,WeatherDisplay:10.37,2013-02-10 18:15:00,
2013-02-10 13:20:00,18.7,4.4,30.46,South,180,2.3,2.3,53,0.01,CLR,FEW,0.01,578.0,WeatherDisplay:10.37,2013-02-10 18:20:00,
2013-02-10 13:25:00,19.1,4.8,30.46,WSW,240,3.5,3.5,53,0.01,CLR,FEW,0.01,570.0,WeatherDisplay:10.37,2013-02-10 18:25:00,
2013-02-10 13:30:00,19.1,5.6,30.46,West,273,2.3,2.3,55,0.01,CLR,FEW,0.01,564.0,WeatherDisplay:10.37,2013-02-10 18:30:00,
2013-02-10 13:35:00,19.7,5.3,30.46,WSW,253,4.0,4.0,53,0.01,CLR,FEW,0.01,557.0,WeatherDisplay:10.37,2013-02-10 18:35:00,
2013-02-10 13:40:00,19.6,4.8,30.46,NE,39,2.3,2.3,52,0.01,CLR,FEW,0.01,552.0,WeatherDisplay:10.37,2013-02-10 18:40:00,
2013-02-10 13:45:00,19.7,5.3,30.45,NE,40,3.5,3.5,53,0.01,CLR,FEW,0.01,543.0,WeatherDisplay:10.37,2013-02-10 18:45:00,
2013-02-10 13:50:00,19.7,5.3,30.45,ESE,121,2.0,2.0,53,0.01,CLR,FEW,0.01,534.0,WeatherDisplay:10.37,2013-02-10 18:50:00,
2013-02-10 13:55:00,19.2,3.6,30.45,ENE,67,3.5,3.5,50,0.01,CLR,FEW,0.01,522.0,WeatherDisplay:10.37,2013-02-10 18:55:00,
2013-02-10 14:00:00,19.1,3.5,30.45,ESE,104,3.0,3.0,50,0.00,CLR,FEW,0.01,515.0,WeatherDisplay:10.37,2013-02-10 19:00:00,
2013-02-10 14:05:00,19.6,5.6,30.45,WSW,248,2.3,2.3,54,0.00,CLR,FEW,0.01,503.0,WeatherDisplay:10.37,2013-02-10 19:05:00,
2013-02-10 14:10:00,19.5,3.0,30.44,WSW,247,1.1,0.0,48,0.00,CLR,FEW,0.01,494.0,WeatherDisplay:10.37,2013-02-10 19:10:00,
2013-02-10 14:15:00,19.8,4.6,30.44,NNE,20,3.0,3.0,51,0.00,CLR,FEW,0.01,485.0,WeatherDisplay:10.37,2013-02-10 19:15:00,
2013-02-10 14:20:00,19.7,3.6,30.44,West,259,3.5,3.5,49,0.00,CLR,FEW,0.01,473.0,WeatherDisplay:10.37,2013-02-10 19:20:00,
2013-02-10 14:25:00,20.1,4.8,30.44,WSW,258,2.0,0.0,51,0.00,CLR,FEW,0.01,461.0,WeatherDisplay:10.37,2013-02-10 19:25:00,
2013-02-10 14:30:00,20.3,4.6,30.43,West,260,2.3,2.3,50,0.00,CLR,FEW,0.01,448.0,WeatherDisplay:10.37,2013-02-10 19:30:00,
2013-02-10 14:35:00,20.5,5.6,30.44,SW,219,3.5,3.5,52,0.00,CLR,FEW,0.01,436.0,WeatherDisplay:10.37,2013-02-10 19:35:00,
2013-02-10 14:40:00,21.0,7.3,30.43,SW,222,2.0,2.0,55,0.00,CLR,FEW,0.01,424.0,WeatherDisplay:10.37,2013-02-10 19:40:00,
2013-02-10 14:45:00,20.9,6.0,30.43,SW,234,5.0,5.0,52,0.00,CLR,FEW,0.01,411.0,WeatherDisplay:10.37,2013-02-10 19:45:00,
2013-02-10 14:50:00,20.8,5.5,30.44,NNE,15,1.1,1.1,51,0.00,CLR,FEW,0.01,396.0,WeatherDisplay:10.37,2013-02-10 19:50:00,
2013-02-10 14:55:00,21.0,4.8,30.43,West,279,2.3,2.3,49,0.00,CLR,FEW,0.01,385.0,WeatherDisplay:10.37,2013-02-10 19:55:00,
2013-02-10 15:00:00,20.7,5.4,30.43,WSW,252,1.1,1.1,51,0.00,CLR,FEW,0.01,373.0,WeatherDisplay:10.37,2013-02-10 20:00:00,
2013-02-10 15:05:00,20.3,4.2,30.43,South,180,1.1,1.1,49,0.00,CLR,FEW,0.01,357.0,WeatherDisplay:10.37,2013-02-10 20:05:00,
2013-02-10 15:10:00,20.5,5.2,30.44,SW,223,3.5,3.5,51,0.00,CLR,FEW,0.01,304.0,WeatherDisplay:10.37,2013-02-10 20:10:00,
2013-02-10 15:15:00,20.5,5.6,30.44,SW,230,1.1,1.1,52,0.00,CLR,FEW,0.01,220.0,WeatherDisplay:10.37,2013-02-10 20:15:00,
2013-02-10 15:20:00,20.3,5.0,30.44,SSE,152,3.5,3.5,51,0.00,CLR,FEW,0.01,174.0,WeatherDisplay:10.37,2013-02-10 20:20:00,
2013-02-10 15:25:00,20.0,3.9,30.44,SW,216,3.0,3.0,49,0.00,CLR,FEW,0.01,125.0,WeatherDisplay:10.37,2013-02-10 20:25:00,
2013-02-10 15:30:00,19.9,4.2,30.44,SSW,203,3.5,3.5,50,0.00,CLR,FEW,0.01,144.0,WeatherDisplay:10.37,2013-02-10 20:30:00,
2013-02-10 15:35:00,19.7,4.5,30.44,North,355,4.0,4.0,51,0.00,CLR,FEW,0.01,40.0,WeatherDisplay:10.37,2013-02-10 20:35:00,
2013-02-10 15:40:00,19.3,3.7,30.44,NW,309,2.0,2.0,50,0.00,CLR,FEW,0.01,37.0,WeatherDisplay:10.37,2013-02-10 20:40:00,
2013-02-10 15:45:00,19.0,4.2,30.44,NW,310,2.3,0.0,52,0.00,CLR,FEW,0.01,37.0,WeatherDisplay:10.37,2013-02-10 20:45:00,
2013-02-10 15:50:00,18.9,4.6,30.45,SSW,201,4.0,4.0,53,0.00,CLR,FEW,0.01,37.0,WeatherDisplay:10.37,2013-02-10 20:50:00,
2013-02-10 15:55:00,18.7,3.5,30.44,SW,215,4.0,4.0,51,0.00,CLR,FEW,0.01,35.0,WeatherDisplay:10.37,2013-02-10 20:55:00,
2013-02-10 16:00:00,18.7,3.1,30.45,WSW,238,1.1,1.1,50,0.00,CLR,FEW,0.01,33.0,WeatherDisplay:10.37,2013-02-10 21:00:00,
2013-02-10 16:06:00,18.7,5.2,30.45,SSW,209,0.0,0.0,55,0.00,CLR,FEW,0.01,28.0,WeatherDisplay:10.37,2013-02-10 21:06:00,
2013-02-10 16:11:00,18.5,5.8,30.45,SSW,211,1.0,0.0,57,0.00,CLR,FEW,0.01,26.0,WeatherDisplay:10.37,2013-02-10 21:11:00,
2013-02-10 16:16:00,18.3,5.2,30.45,SSW,211,1.1,1.1,56,0.00,CLR,FEW,0.01,26.0,WeatherDisplay:10.37,2013-02-10 21:16:00,
2013-02-10 16:21:00,17.8,4.7,30.44,SSW,200,0.0,0.0,56,0.00,CLR,FEW,0.01,23.0,WeatherDisplay:10.37,2013-02-10 21:21:00,
2013-02-10 16:26:00,17.6,4.2,30.44,SSW,200,0.0,0.0,55,0.00,CLR,FEW,0.01,21.0,WeatherDisplay:10.37,2013-02-10 21:26:00,
2013-02-10 16:31:00,17.5,4.1,30.45,SSW,200,0.0,0.0,55,0.00,CLR,FEW,0.01,21.0,WeatherDisplay:10.37,2013-02-10 21:31:00,
2013-02-10 16:36:00,17.5,4.1,30.45,SSW,200,0.0,0.0,55,0.00,CLR,FEW,0.01,18.0,WeatherDisplay:10.37,2013-02-10 21:36:00,
2013-02-10 16:41:00,17.4,3.2,30.45,SSW,200,0.0,0.0,53,0.00,CLR,FEW,0.01,18.0,WeatherDisplay:10.37,2013-02-10 21:41:00,
2013-02-10 16:46:00,17.2,4.9,30.45,SSW,200,1.1,1.1,58,0.00,CLR,FEW,0.01,16.0,WeatherDisplay:10.37,2013-02-10 21:46:00,
2013-02-10 16:51:00,16.8,5.7,30.44,SSW,200,0.0,0.0,61,0.00,CLR,FEW,0.01,12.0,WeatherDisplay:10.37,2013-02-10 21:51:00,
2013-02-10 16:56:00,16.5,3.1,30.44,SSW,200,0.0,0.0,55,0.00,CLR,FEW,0.01,9.0,WeatherDisplay:10.37,2013-02-10 21:56:00,
2013-02-10 17:01:00,16.5,2.7,30.44,SSW,200,0.0,0.0,54,0.00,CLR,FEW,0.01,7.0,WeatherDisplay:10.37,2013-02-10 22:01:00,
2013-02-10 17:06:00,16.4,3.4,30.45,SSW,200,0.0,0.0,56,0.00,CLR,FEW,0.01,5.0,WeatherDisplay:10.37,2013-02-10 22:06:00,
2013-02-10 17:11:00,16.3,3.3,30.44,SSW,200,0.0,0.0,56,0.00,CLR,FEW,0.01,0.0,WeatherDisplay:10.37,2013-02-10 22:11:00,
2013-02-10 17:16:00,16.3,2.1,30.44,SSW,200,0.0,0.0,53,0.00,CLR,FEW,0.01,0.0,WeatherDisplay:10.37,2013-02-10 22:16:00,
2013-02-10 17:21:00,16.3,2.1,30.44,SSW,200,0.0,0.0,53,0.00,CLR,FEW,0.01,0.0,WeatherDisplay:10.37,2013-02-10 22:21:00,
2013-02-10 17:26:00,16.3,2.9,30.44,SSW,200,0.0,0.0,55,0.00,CLR,FEW,0.01,0.0,WeatherDisplay:10.37,2013-02-10 22:26:00,
2013-02-10 17:31:00,16.2,1.2,30.44,SSW,200,0.0,0.0,51,0.00,CLR,FEW,0.01,0.0,WeatherDisplay:10.37,2013-02-10 22:31:00,
2013-02-10 17:36:00,16.1,1.9,30.44,SSW,200,0.0,0.0,53,0.00,CLR,FEW,0.01,0.0,WeatherDisplay:10.37,2013-02-10 22:36:00,
2013-02-10 17:42:00,16.0,2.3,30.44,SSW,200,0.0,0.0,54,0.00,CLR,FEW,0.01,0.0,WeatherDisplay:10.37,2013-02-10 22:42:00,
2013-02-10 17:47:00,15.9,1.4,30.44,SSW,200,0.0,0.0,52,0.00,CLR,FEW,0.01,0.0,WeatherDisplay:10.37,2013-02-10 22:47:00,
2013-02-10 17:52:00,16.0,1.0,30.44,SSW,200,0.0,0.0,51,0.00,CLR,FEW,0.01,0.0,WeatherDisplay:10.37,2013-02-10 22:52:00,
2013-02-10 17:57:00,16.1,1.5,30.44,SSW,200,0.0,0.0,52,0.00,CLR,FEW,0.01,0.0,WeatherDisplay:10.37,2013-02-10 22:57:00,
2013-02-10 18:02:00,16.0,1.4,30.44,SSW,200,0.0,0.0,52,0.00,CLR,FEW,0.01,0.0,WeatherDisplay:10.37,2013-02-10 23:02:00,
2013-02-10 18:07:00,15.9,1.8,30.44,SSW,200,0.0,0.0,53,0.00,CLR,FEW,0.01,0.0,WeatherDisplay:10.37,2013-02-10 23:07:00,
2013-02-10 18:12:00,15.9,1.8,30.44,SSW,200,0.0,0.0,53,0.00,CLR,FEW,0.01,0.0,WeatherDisplay:10.37,2013-02-10 23:12:00,
2013-02-10 18:17:00,15.8,2.1,30.44,SSW,200,0.0,0.0,54,0.00,CLR,FEW,0.01,0.0,WeatherDisplay:10.37,2013-02-10 23:17:00,
2013-02-10 18:22:00,15.7,1.2,30.45,SSW,200,0.0,0.0,52,0.00,CLR,FEW,0.01,0.0,WeatherDisplay:10.37,2013-02-10 23:22:00,
2013-02-10 18:27:00,15.7,1.2,30.45,SSW,200,0.0,0.0,52,0.00,CLR,FEW,0.01,0.0,WeatherDisplay:10.37,2013-02-10 23:27:00,
2013-02-10 18:32:00,15.6,2.7,30.44,SSW,200,0.0,0.0,56,0.00,CLR,FEW,0.01,0.0,WeatherDisplay:10.37,2013-02-10 23:32:00,
2013-02-10 18:37:00,15.4,2.5,30.45,SSW,200,0.0,0.0,56,0.00,CLR,FEW,0.01,0.0,WeatherDisplay:10.37,2013-02-10 23:37:00,
2013-02-10 18:42:00,15.1,2.6,30.44,SSW,200,0.0,0.0,57,0.00,CLR,FEW,0.01,0.0,WeatherDisplay:10.37,2013-02-10 23:42:00,
2013-02-10 18:47:00,14.7,2.6,30.44,SSW,200,0.0,0.0,58,0.00,CLR,FEW,0.01,0.0,WeatherDisplay:10.37,2013-02-10 23:47:00,
2013-02-10 18:52:00,14.3,3.3,30.44,SSW,200,0.0,0.0,61,0.00,CLR,FEW,0.01,0.0,WeatherDisplay:10.37,2013-02-10 23:52:00,
2013-02-10 18:57:00,14.0,2.3,30.44,SSW,200,0.0,0.0,59,0.00,CLR,FEW,0.01,0.0,WeatherDisplay:10.37,2013-02-10 23:57:00,
2013-02-10 19:02:00,13.7,2.0,30.44,SSW,200,0.0,0.0,59,0.00,CLR,FEW,0.01,0.0,WeatherDisplay:10.37,2013-02-11 00:02:00,
2013-02-10 19:07:00,13.4,2.8,30.43,SSW,200,0.0,0.0,62,0.00,CLR,FEW,0.01,0.0,WeatherDisplay:10.37,2013-02-11 00:07:00,
2013-02-10 19:12:00,13.0,3.1,30.43,SSW,200,0.0,0.0,64,0.00,CLR,FEW,0.01,0.0,WeatherDisplay:10.37,2013-02-11 00:12:00,
2013-02-10 19:17:00,12.6,3.4,30.43,SSW,200,0.0,0.0,66,0.00,CLR,FEW,0.01,0.0,WeatherDisplay:10.37,2013-02-11 00:17:00,
2013-02-10 19:22:00,12.2,3.6,30.42,SSW,200,0.0,0.0,68,0.00,CLR,FEW,0.01,0.0,WeatherDisplay:10.37,2013-02-11 00:22:00,
2013-02-10 19:27:00,11.8,3.3,30.43,SSW,200,0.0,0.0,68,0.00,CLR,FEW,0.01,0.0,WeatherDisplay:10.37,2013-02-11 00:27:00,
2013-02-10 19:32:00,11.7,1.9,30.42,SSW,200,0.0,0.0,64,0.00,CLR,FEW,0.01,0.0,WeatherDisplay:10.37,2013-02-11 00:32:00,
2013-02-10 19:37:00,11.6,3.1,30.42,SSW,200,0.0,0.0,68,0.00,CLR,FEW,0.01,0.0,WeatherDisplay:10.37,2013-02-11 00:37:00,
2013-02-10 19:42:00,11.4,3.2,30.41,SSW,200,0.0,0.0,69,0.00,CLR,FEW,0.01,0.0,WeatherDisplay:10.37,2013-02-11 00:42:00,
2013-02-10 19:47:00,11.3,3.4,30.42,SSW,200,0.0,0.0,70,0.00,CLR,FEW,0.01,0.0,WeatherDisplay:10.37,2013-02-11 00:47:00,
2013-02-10 19:52:00,11.2,5.1,30.42,SSW,200,0.0,0.0,76,0.00,CLR,FEW,0.01,0.0,WeatherDisplay:10.37,2013-02-11 00:52:00,
2013-02-10 19:57:00,11.1,2.9,30.42,SSW,200,0.0,0.0,69,0.00,CLR,FEW,0.01,0.0,WeatherDisplay:10.37,2013-02-11 00:57:00,
2013-02-10 20:02:00,10.9,2.7,30.42,SSW,200,0.0,0.0,69,0.00,CLR,FEW,0.01,0.0,WeatherDisplay:10.37,2013-02-11 01:02:00,
2013-02-10 20:07:00,10.9,1.8,30.42,SSW,200,0.0,0.0,66,0.00,CLR,FEW,0.01,0.0,WeatherDisplay:10.37,2013-02-11 01:07:00,
2013-02-10 20:12:00,10.9,3.3,30.42,SSW,200,0.0,0.0,71,0.00,CLR,FEW,0.01,0.0,WeatherDisplay:10.37,2013-02-11 01:12:00,
2013-02-10 20:22:00,10.0,2.5,30.42,SSW,200,0.0,0.0,71,0.00,RA,FEW,0.01,0.0,WeatherDisplay:10.37,2013-02-11 01:22:00,
2013-02-10 20:27:00,9.6,2.1,30.42,SSW,200,0.0,0.0,71,0.00,RA,FEW,0.01,0.0,WeatherDisplay:10.37,2013-02-11 01:27:00,
2013-02-10 20:32:00,9.2,2.0,30.42,SSW,200,0.0,0.0,72,0.00,RA,FEW,0.01,0.0,WeatherDisplay:10.37,2013-02-11 01:32:00,
2013-02-10 20:37:00,8.7,1.8,30.42,SSW,200,0.0,0.0,73,0.00,CLR,FEW,0.01,0.0,WeatherDisplay:10.37,2013-02-11 01:37:00,
2013-02-10 20:42:00,8.2,1.3,30.42,SSW,200,0.0,0.0,73,0.00,CLR,FEW,0.01,0.0,WeatherDisplay:10.37,2013-02-11 01:42:00,
2013-02-10 20:47:00,7.8,1.5,30.42,SSW,200,0.0,0.0,75,0.00,CLR,FEW,0.01,0.0,WeatherDisplay:10.37,2013-02-11 01:47:00,
2013-02-10 20:52:00,7.6,1.9,30.41,SSW,200,0.0,0.0,77,0.00,CLR,FEW,0.01,0.0,WeatherDisplay:10.37,2013-02-11 01:52:00,
2013-02-10 20:57:00,7.4,1.7,30.41,SSW,200,0.0,0.0,77,0.00,CLR,FEW,0.01,0.0,WeatherDisplay:10.37,2013-02-11 01:57:00,
2013-02-10 21:02:00,7.1,1.4,30.41,SSW,200,0.0,0.0,77,0.00,CLR,FEW,0.01,0.0,WeatherDisplay:10.37,2013-02-11 02:02:00,
2013-02-10 21:07:00,7.1,1.7,30.41,SSW,200,0.0,0.0,78,0.00,CLR,FEW,0.01,0.0,WeatherDisplay:10.37,2013-02-11 02:07:00,
2013-02-10 21:12:00,7.1,2.0,30.41,SSW,200,0.0,0.0,79,0.00,CLR,FEW,0.01,0.0,WeatherDisplay:10.37,2013-02-11 02:12:00,
2013-02-10 21:17:00,6.8,1.4,30.41,SSW,200,0.0,0.0,78,0.00,CLR,FEW,0.01,0.0,WeatherDisplay:10.37,2013-02-11 02:17:00,
2013-02-10 21:22:00,6.4,0.4,30.40,SSW,200,0.0,0.0,76,0.00,CLR,FEW,0.01,0.0,WeatherDisplay:10.37,2013-02-11 02:22:00,
2013-02-10 21:27:00,5.8,0.1,30.40,SSW,200,0.0,0.0,77,0.00,CLR,FEW,0.01,0.0,WeatherDisplay:10.37,2013-02-11 02:27:00,
2013-02-10 21:32:00,5.5,0.1,30.40,SSW,200,0.0,0.0,78,0.00,CLR,FEW,0.01,0.0,WeatherDisplay:10.37,2013-02-11 02:32:00,
2013-02-10 21:37:00,5.2,0.1,30.39,SSW,200,0.0,0.0,79,0.00,CLR,FEW,0.01,0.0,WeatherDisplay:10.37,2013-02-11 02:37:00,
2013-02-10 21:42:00,5.3,0.7,30.40,SSW,200,0.0,0.0,81,0.00,CLR,FEW,0.01,0.0,WeatherDisplay:10.37,2013-02-11 02:42:00,
2013-02-10 21:47:00,6.0,1.4,30.39,SSW,200,0.0,0.0,81,0.00,CLR,FEW,0.01,0.0,WeatherDisplay:10.37,2013-02-11 02:47:00,
2013-02-10 21:52:00,7.0,2.1,30.39,SSW,200,0.0,0.0,80,0.00,CLR,FEW,0.01,0.0,WeatherDisplay:10.37,2013-02-11 02:52:00,
2013-02-10 21:57:00,8.0,2.6,30.39,SSW,200,0.0,0.0,78,0.00,CLR,FEW,0.01,0.0,WeatherDisplay:10.37,2013-02-11 02:57:00,
2013-02-10 22:02:00,8.5,3.0,30.39,SSW,200,0.0,0.0,78,0.00,CLR,FEW,0.01,0.0,WeatherDisplay:10.37,2013-02-11 03:02:00,
2013-02-10 22:07:00,8.1,1.8,30.38,SSW,200,0.0,0.0,75,0.00,CLR,FEW,0.01,0.0,WeatherDisplay:10.37,2013-02-11 03:07:00,
2013-02-10 22:12:00,7.2,0.9,30.38,SSW,200,0.0,0.0,75,0.00,CLR,FEW,0.01,0.0,WeatherDisplay:10.37,2013-02-11 03:12:00,
2013-02-10 22:17:00,6.6,0.6,30.39,SSW,200,0.0,0.0,76,0.00,CLR,FEW,0.01,0.0,WeatherDisplay:10.37,2013-02-11 03:17:00,
2013-02-10 22:22:00,6.0,0.6,30.38,SSW,200,0.0,0.0,78,0.00,CLR,FEW,0.01,0.0,WeatherDisplay:10.37,2013-02-11 03:22:00,
2013-02-10 22:27:00,5.6,0.8,30.39,SSW,200,0.0,0.0,80,0.00,CLR,FEW,0.01,0.0,WeatherDisplay:10.37,2013-02-11 03:27:00,
2013-02-10 22:32:00,5.5,0.9,30.39,SSW,200,0.0,0.0,81,0.00,CLR,FEW,0.01,0.0,WeatherDisplay:10.37,2013-02-11 03:32:00,
2013-02-10 22:37:00,5.4,0.8,30.39,SSW,200,0.0,0.0,81,0.00,CLR,FEW,0.01,0.0,WeatherDisplay:10.37,2013-02-11 03:37:00,
2013-02-10 22:42:00,5.2,0.4,30.39,SSW,200,0.0,0.0,80,0.00,CLR,FEW,0.01,0.0,WeatherDisplay:10.37,2013-02-11 03:42:00,
2013-02-10 22:47:00,5.0,0.2,30.40,SSW,200,0.0,0.0,80,0.00,CLR,FEW,0.01,0.0,WeatherDisplay:10.37,2013-02-11 03:47:00,
2013-02-10 22:52:00,4.9,0.3,30.39,SSW,200,0.0,0.0,81,0.00,CLR,FEW,0.01,0.0,WeatherDisplay:10.37,2013-02-11 03:52:00,
2013-02-10 22:57:00,4.7,-0.1,30.38,SSW,200,0.0,0.0,80,0.00,CLR,FEW,0.01,0.0,WeatherDisplay:10.37,2013-02-11 03:57:00,
2013-02-10 23:02:00,4.5,-0.3,30.39,SSW,200,0.0,0.0,80,0.00,CLR,FEW,0.01,0.0,WeatherDisplay:10.37,2013-02-11 04:02:00,
2013-02-10 23:07:00,4.4,-0.1,30.39,SSW,200,0.0,0.0,81,0.00,CLR,FEW,0.01,0.0,WeatherDisplay:10.37,2013-02-11 04:07:00,
2013-02-10 23:12:00,4.3,-0.2,30.39,SSW,200,0.0,0.0,81,0.00,CLR,FEW,0.01,0.0,WeatherDisplay:10.37,2013-02-11 04:12:00,
2013-02-10 23:17:00,4.1,-0.4,30.39,SSW,200,0.0,0.0,81,0.00,CLR,FEW,0.01,0.0,WeatherDisplay:10.37,2013-02-11 04:17:00,
2013-02-10 23:22:00,3.9,-0.9,30.39,SSW,200,0.0,0.0,80,0.00,CLR,FEW,0.01,0.0,WeatherDisplay:10.37,2013-02-11 04:22:00,
2013-02-10 23:27:00,3.7,-1.1,30.39,SSW,200,0.0,0.0,80,0.00,CLR,FEW,0.01,0.0,WeatherDisplay:10.37,2013-02-11 04:27:00,
2013-02-10 23:33:00,3.9,-0.4,30.39,SSW,200,0.0,0.0,82,0.00,CLR,FEW,0.01,0.0,WeatherDisplay:10.37,2013-02-11 04:33:00,
2013-02-10 23:38:00,4.9,0.6,30.38,SSW,200,0.0,0.0,82,0.00,CLR,FEW,0.01,0.0,WeatherDisplay:10.37,2013-02-11 04:38:00,
2013-02-10 23:43:00,6.1,1.3,30.38,SSW,200,0.0,0.0,80,0.00,CLR,FEW,0.01,0.0,WeatherDisplay:10.37,2013-02-11 04:43:00,
2013-02-10 23:48:00,6.8,1.7,30.38,SSW,200,1.0,1.0,79,0.00,CLR,FEW,0.01,0.0,WeatherDisplay:10.37,2013-02-11 04:48:00,
2013-02-10 23:53:00,7.8,2.1,30.38,SSW,200,0.0,0.0,77,0.00,CLR,FEW,0.01,0.0,WeatherDisplay:10.37,2013-02-11 04:53:00,
2013-02-10 23:58:00,8.2,1.6,30.38,SSW,200,0.0,0.0,74,0.00,CLR,FEW,0.01,0.0,WeatherDisplay:10.37,2013-02-11 04:58:00,